Flag for Russia Weather past 2 weeks in Surgut, Russia

Now
68 °F

Broken clouds.


Feels Like: 68 °F
Forecast: 46 / 56 °F
Wind: 6 mph from Southeast

Location: Surgut Airport

Current Time: Jul 3, 2015 at 11:39:06 AM

Latest Report: Jul 3, 2015 at 11:00 AM


Visibility: 4 mi

Pressure: 29.06 "Hg

Humidity: 94%

Dew point: 66 °F

Location of SurgutLocation

Historic Weather in Surgut — Graph

°F

Surgut temperature yesterday

Maximum temperature yesterday: 63 °F (at 8:00 AM)
Minimum temperature yesterday: 57 °F (at 12:30 AM)
Average temperature yesterday: 61 °F

Past Weeks' High & Low Weather Summary

 TemperatureHumidityPressure
High86 °F (Jun 29, 3:00 PM)100% (Jun 24, 2:00 AM)30.33 "Hg (Jun 24, 2:00 AM)
Low48 °F (Jun 21, 1:00 AM)33% (Jun 20, 2:00 PM)29.06 "Hg (Jul 3, 10:30 AM)
Average67 °F66%29.93 "Hg
* Reported Jun 18 10:00 AM — Jul 3 10:30 AM, Surgut, Weather by CustomWeather, © 2015

Note: Actual official high and low records may vary slightly from our data, if they occured in-between our weather recording intervals... More about our weather records

Advertising

Surgut weather history for previous 24 hours

 ConditionsComfort  
Time TempWeatherWind HumidityBarometerVisibility
10:30 AM
Fri, Jul 3
68 °FBroken clouds.6 mph94%29.06 "Hg4 mi
10:00 AM66 °FPartly sunny.8 mph100%29.09 "Hg4 mi
9:30 AM66 °FSprinkles. Partly sunny.8 mph94%29.09 "Hg4 mi
9:00 AM66 °FSleet. Cloudy.8 mph94%29.12 "Hg1 mi
8:30 AM66 °FPartly sunny.8 mph94%29.12 "Hg4 mi
8:00 AM66 °FPartly sunny.8 mph100%29.12 "Hg4 mi
7:30 AM66 °FPartly sunny.6 mph94%29.12 "Hg4 mi
7:00 AM66 °FPartly sunny.6 mph94%29.15 "Hg4 mi
6:30 AM66 °FPartly sunny.3 mph94%29.15 "Hg4 mi
6:00 AM66 °FPartly sunny.6 mph94%29.15 "Hg4 mi
5:30 AM66 °FPartly sunny.6 mph94%29.15 "Hg4 mi
5:00 AM66 °FPartly sunny.6 mph94%29.18 "Hg4 mi
4:30 AM66 °FPartly sunny.6 mph94%29.18 "Hg4 mi
4:00 AM66 °FPartly sunny.6 mph94%29.21 "Hg4 mi
3:30 AM66 °FPassing clouds.6 mph94%29.21 "Hg4 mi
2:30 AM64 °FFog.3 mph94%29.24 "Hg3 mi
2:00 AM63 °FSprinkles. Passing clouds.8 mph100%29.24 "Hg4 mi
1:30 AM63 °FSprinkles. Fog.8 mph100%29.24 "Hg1 mi
1:00 AM63 °FLight rain. Fog.8 mph100%29.27 "Hg3 mi
12:30 AM63 °FLow clouds.8 mph100%29.30 "Hg4 mi
12:00 AM63 °FLight rain. Low clouds.10 mph100%29.30 "Hg4 mi
11:30 PM
Thu, Jul 2
63 °FLight rain. Low clouds.10 mph100%29.33 "Hg4 mi
11:00 PM63 °FLow clouds.10 mph100%29.36 "Hg4 mi
10:30 PM63 °FLow clouds.13 mph94%29.36 "Hg4 mi
10:00 PM63 °FLow clouds.13 mph94%29.39 "Hg4 mi
9:30 PM63 °FBroken clouds.13 mph94%29.39 "Hg4 mi
9:00 PM61 °FBroken clouds.10 mph100%29.39 "Hg4 mi
8:30 PM61 °FSprinkles. Broken clouds.10 mph100%29.42 "Hg4 mi
8:00 PM61 °FSprinkles. Broken clouds.10 mph100%29.45 "Hg4 mi
7:30 PM61 °FThunderstorms. Broken clouds.8 mph100%29.45 "Hg2 mi
7:00 PM61 °FThunderstorms. Broken clouds.8 mph100%29.47 "Hg4 mi
6:30 PM61 °FOvercast.8 mph100%29.47 "Hg4 mi
6:00 PM61 °FOvercast.10 mph100%29.47 "Hg4 mi
5:30 PM61 °FLight rain. Low clouds.8 mph100%29.50 "Hg4 mi
5:00 PM63 °FLight rain. Overcast.10 mph88%29.53 "Hg4 mi
4:30 PM63 °FOvercast.10 mph88%29.53 "Hg4 mi
4:00 PM61 °FLight rain. Overcast.15 mph88%29.53 "Hg4 mi
3:30 PM61 °FLight rain. Overcast.15 mph88%29.56 "Hg4 mi
3:00 PM61 °FOvercast.17 mph88%29.59 "Hg4 mi
2:30 PM61 °FBroken clouds.17 mph88%29.59 "Hg4 mi
2:00 PM61 °FBroken clouds.20 mph83%29.59 "Hg4 mi
1:30 PM61 °FBroken clouds.15 mph88%29.59 "Hg4 mi
1:00 PM59 °FSprinkles. Broken clouds.17 mph88%29.65 "Hg4 mi
12:30 PM59 °FSprinkles. Broken clouds.20 mph88%29.65 "Hg4 mi
12:00 PM61 °FScattered clouds.10 mph83%29.62 "Hg4 mi
11:30 AM61 °FSprinkles. Scattered clouds.10 mph77%29.65 "Hg4 mi
11:00 AM63 °FScattered clouds.20 mph68%29.65 "Hg4 mi
Weather by CustomWeather, © 2015

See weather overviewHow to use our weather pages